YOU ARE USING AN OUTDATED BROWSER
It is limiting your browsing experience. Please upgrade to a modern browser.

SANTANDER (Port)

Tara: Spain Tara: Spain (ES)
Latitudine/Longitudine: 43.455355° / -3.808037° Arata pe harta Arata pe harta
Ora locala:  1490325350
Un/locode: ESSDR
Nave actualmente in port: 12
Sosiri asteptate: 12

Sosiri si plecari recente


Numele navei
Arrival (UTC)
Arrival (LT)
Arrival (MT)
Arrival
Plecare (UTC)
Plecare (LT)
Plecare (MT)
Plecare
Vessel Type: Pescuit  SIEMPRE RUFO 1490284020 1490284020 1490284020 11 hours, 28 minutes ago 1490325180 1490328780 1490325180 2 minutes ago
Vessel Type: Pescuit  NUEVO PASTOR 1490284800 1490284800 1490284800 11 hours, 15 minutes ago 1490323800 1490327400 1490323800 25 minutes ago
Vessel Type: Pescuit  HNOS. SAN SALVADOR 1490296440 1490296440 1490296440 8 hours, 1 minute ago 1490308080 1490311680 1490308080 4 hours, 47 minutes ago
Vessel Type: Pescuit  VILABOA UNO 1490299560 1490299560 1490299560 7 hours, 9 minutes ago 1490305920 1490309520 1490305920 5 hours, 23 minutes ago
Vessel Type: Remorcher, Pilotina  PILOTS 1 1490298600 1490298600 1490298600 7 hours, 25 minutes ago
Vessel Type: Remorcher, Pilotina  PILOTS 1 1490298540 1490298540 1490298540 7 hours, 26 minutes ago
Vessel Type: Cargo  DRAIT 1490224380 1490224380 1490224380 1 day, 4 hours ago 1490298180 1490301780 1490298180 7 hours, 32 minutes ago
Vessel Type: Cargo  DRAIT 1490224380 1490224380 1490224380 1 day, 4 hours ago 1490298180 1490301780 1490298180 7 hours, 32 minutes ago
Vessel Type: Remorcher, Pilotina  PILOTS 1 1490296560 1490296560 1490296560 7 hours, 59 minutes ago
Vessel Type: Cargo  VIKING ODESSA 1490249700 1490249700 1490249700 21 hours ago 1490296380 1490299980 1490296380 8 hours, 2 minutes ago

Sosiri asteptate


Numele navei
Scheduled Arrival (UTC)
Programul sosirilor(ora locala)
Scheduled Arrival (MT)
Scheduled Arrival
Timp estimativ de sosire (UTC)
Timp estimativ de sosire(ora locala)
Timp estimativ de sosire (MT)
Timp estimativ de sosire
Vessel Type: Cargo  CEMBROOK 1490328000 1490331600 1490331600 in 44 minutes 1490329980 1490329980 1490329980 in 1 hour, 17 minutes
Vessel Type: Cargo  ATLANTIC ZEUS 1490356800 1490360400 1490360400 in 8 hours, 44 minutes 1490362320 1490362320 1490362320 in 10 hours, 16 minutes
Vessel Type: Cargo  BEAUMAIDEN 1490418000 1490421600 1490421600 in 1 day, 1 hour 1490425800 1490425800 1490425800 in 1 day, 3 hours
Vessel Type: Cargo  REGGEDIJK 1490421600 1490425200 1490425200 in 1 day, 2 hours 1490415300 1490415300 1490415300 in 1 day
Vessel Type: Cargo  VIKING CONSTANZA 1490439600 1490443200 1490443200 in 1 day, 7 hours 1490429340 1490429340 1490429340 in 1 day, 4 hours
Vessel Type: Cargo  TOLEDO 1490439600 1490443200 1490443200 in 1 day, 7 hours 1490444460 1490444460 1490444460 in 1 day, 9 hours
Vessel Type: Cargo  AUTOPROGRESS 1490446800 1490450400 1490450400 in 1 day, 9 hours 1490429280 1490429280 1490429280 in 1 day, 4 hours
Vessel Type: Cargo  ARKLOW REBEL 1490468400 1490472000 1490472000 in 1 day, 15 hours 1490491140 1490491140 1490491140 in 1 day, 22 hours
Vessel Type: Cargo  SEBRING EXPRESS 1490504400 1490511600 1490511600 in 2 days, 1 hour 1490509320 1490509320 1490509320 in 2 days, 3 hours
Vessel Type: Cargo  WILSON LIMERICK 1490598000 1490605200 1490605200 in 3 days, 3 hours 1490577000 1490577000 1490577000 in 2 days, 21 hours

Wind Forecast


    
Timp(UTC)
Viteza
Direction
Temperature
1490324400 8 knots 181° 9°C
1490335200 10 knots 185° 7°C
1490346000 10 knots 189° 9°C
1490356800 10 knots 110° 12°C
1490367600 18 knots 91° 11°C
1490378400 15 knots 97° 12°C
1490389200 5 knots 154° 12°C
1490400000 8 knots 318° 12°C
1490410800 14 knots 316° 12°C
1490421600 25 knots 292° 11°C
1490432400 35 knots 280° 10°C
1490443200 33 knots 275° 10°C
1490454000 30 knots 270° 10°C
1490464800 25 knots 233° 10°C
1490475600 25 knots 214° 10°C
1490486400 18 knots 197° 10°C
1490497200 17 knots 204° 11°C